TimeCDT,TemperatureF,Dew PointF,Humidity,Sea Level PressureIn,VisibilityMPH,Wind Direction,Wind SpeedMPH,Gust SpeedMPH,PrecipitationIn,Events,Conditions,WindDirDegrees,DateUTC
12:07 AM,66.2,66.2,100,29.95,0.8,Calm,Calm,-,N/A,,Mist,0,2012-10-26 05:07:00
12:20 AM,66.2,66.2,100,29.94,2.5,Calm,Calm,-,N/A,,Mostly Cloudy,0,2012-10-26 05:20:00
12:25 AM,66.2,66.2,100,29.95,1.0,Calm,Calm,-,N/A,,Mist,0,2012-10-26 05:25:00
12:33 AM,64.4,64.4,100,29.95,0.5,Calm,Calm,-,N/A,Fog,Fog,0,2012-10-26 05:33:00
12:50 AM,64.4,64.4,100,29.95,0.5,Calm,Calm,-,N/A,Fog,Fog,0,2012-10-26 05:50:00
12:53 AM,64.9,64.9,100,29.94,0.5,Calm,Calm,-,N/A,Fog,Fog,0,2012-10-26 05:53:00
1:24 AM,62.6,62.6,100,29.94,1.0,Calm,Calm,-,0.01,,Mist,0,2012-10-26 06:24:00
1:31 AM,62.6,62.6,100,29.94,0.2,Calm,Calm,-,0.01,Fog,Fog,0,2012-10-26 06:31:00
1:53 AM,63.0,63.0,100,29.94,0.2,Calm,Calm,-,0.01,Fog,Fog,0,2012-10-26 06:53:00
2:11 AM,62.6,62.6,100,29.94,2.5,Calm,Calm,-,N/A,,Overcast,0,2012-10-26 07:11:00
2:21 AM,62.6,62.6,100,29.93,0.8,Calm,Calm,-,N/A,,Mist,0,2012-10-26 07:21:00
2:53 AM,63.0,63.0,100,29.93,0.2,Calm,Calm,-,N/A,Fog,Fog,0,2012-10-26 07:53:00
3:53 AM,62.1,62.1,100,29.93,0.2,Calm,Calm,-,N/A,Fog,Fog,0,2012-10-26 08:53:00
4:53 AM,62.1,62.1,100,29.94,0.2,Calm,Calm,-,N/A,Fog,Fog,0,2012-10-26 09:53:00
5:53 AM,62.1,62.1,100,29.94,0.5,Calm,Calm,-,N/A,Fog,Fog,0,2012-10-26 10:53:00
6:53 AM,63.0,63.0,100,29.96,0.2,North,3.5,-,N/A,Fog,Fog,360,2012-10-26 11:53:00
7:53 AM,63.0,63.0,100,29.97,0.2,North,4.6,-,N/A,Fog,Fog,360,2012-10-26 12:53:00
8:53 AM,64.9,64.9,100,29.99,0.2,North,6.9,-,N/A,Fog,Fog,360,2012-10-26 13:53:00
9:25 AM,66.2,66.2,100,30.00,1.8,North,5.8,-,N/A,,Overcast,350,2012-10-26 14:25:00
10:14 AM,73.4,69.8,88,30.00,10.0,NNE,8.1,-,N/A,,Scattered Clouds,20,2012-10-26 15:14:00
10:53 AM,75.9,69.1,79,29.99,10.0,North,6.9,-,N/A,,Clear,10,2012-10-26 15:53:00
11:53 AM,80.1,66.9,64,29.98,10.0,ENE,4.6,-,N/A,,Clear,70,2012-10-26 16:53:00
12:53 PM,82.0,63.0,52,29.96,10.0,North,6.9,-,N/A,,Partly Cloudy,10,2012-10-26 17:53:00
1:53 PM,82.9,64.0,53,29.94,10.0,Variable,5.8,-,N/A,,Partly Cloudy,0,2012-10-26 18:53:00
2:53 PM,84.0,63.0,49,29.93,10.0,North,5.8,16.1,N/A,,Partly Cloudy,360,2012-10-26 19:53:00
3:53 PM,84.0,63.0,49,29.91,10.0,NNW,6.9,-,N/A,,Clear,330,2012-10-26 20:53:00
4:53 PM,82.0,63.0,52,29.90,10.0,North,8.1,-,N/A,,Clear,360,2012-10-26 21:53:00
5:53 PM,78.1,66.0,66,29.91,10.0,Calm,Calm,-,N/A,,Clear,0,2012-10-26 22:53:00
6:53 PM,75.9,66.0,71,29.93,10.0,North,3.5,-,N/A,,Overcast,350,2012-10-26 23:53:00
7:53 PM,73.0,66.0,79,29.94,10.0,Calm,Calm,-,N/A,,Partly Cloudy,0,2012-10-27 00:53:00
8:53 PM,72.0,66.0,81,29.96,10.0,North,6.9,-,N/A,,Partly Cloudy,350,2012-10-27 01:53:00
9:53 PM,66.9,60.1,79,29.98,10.0,NNW,9.2,17.3,N/A,,Clear,340,2012-10-27 02:53:00
10:53 PM,62.1,55.9,80,29.99,10.0,North,8.1,20.7,N/A,,Clear,350,2012-10-27 03:53:00
11:53 PM,57.0,53.1,87,30.00,10.0,North,12.7,20.7,N/A,,Clear,360,2012-10-27 04:53:00